Location: G�rlitz
(51.1670°N, 15.0000°E)
Time: 20:08:59
(UTC+01:00)

Envisat - Pass Details

Date: 15 February 2026
Orbit: 761 x 763 km, 98.4° (Epoch: 11 March)

Event Time Altitude Azimuth Distance (km) Brightness Sun altitude
Rises 04:51:19 0° 3° (N) 3,238 6.4 -22.8°
Reaches altitude 10° 04:54:45 10° 338° (NNW) 2,307 5.3 -22.3°
Enters shadow 04:55:04 11° 335° (NNW) 2,249 5.2 -22.2°
